Regional Weather Roundup
Issued by NWS

Home | Current Version | Previous Version | Graphics & Text | Print | Product List | Glossary Off
Versions: 1 2 3 4 5 6 7 8 9 10 11 12 13 14 15 16 17 18 19 20 21 22 23 24 25 26 27 28 29 30 31 32 33 34 35 36 37 38 39 40 41 42 43 44 45 46 47 48 49 50

746
ASUS43 KMPX 271710
RWRMN
WEATHER ROUNDUP FOR MINNESOTA
NATIONAL WEATHER SERVICE TWIN CITIES/CHANHASSEN MN
1200 PM CDT SUN MAY 27 2018


NOTE: "FAIR" INDICATES FEW OR NO CLOUDS BELOW 12,000 FEET WITH NO
SIGNIFICANT WEATHER AND/OR OBSTRUCTIONS TO VISIBILITY. N/A MEANS
CURRENT SKY AND/OR WEATHER CONDITIONS ARE NOT AVAILABLE.

MNZ060>063-068>070-271800-
   Twin Cities Metro

CITY           SKY/WX    TMP DP  RH WIND       PRES   REMARKS
TWIN CITIES    CLOUDY    88  64  44 NW14G21   29.87S
ST PAUL        FAIR      88  64  44 N10G21    29.87S
CRYSTAL        FAIR      84  57  39 N10       29.87S
BLAINE         CLOUDY    86  57  37 NW14      29.89R
LAKEVILLE      FAIR      88  61  40 N3        29.87F
EDEN PRAIRIE   FAIR      85  61  44 N10       29.86F
SOUTH ST PAUL  FAIR      88  60  39 CALM      29.86F
LAKE ELMO      FAIR      86  68  54 NW7       29.90R
$$
MNZ001>005-007-008-013>017-022>024-027-028-271800-
   Northwest Minnesota

CITY           SKY/WX    TMP DP  RH WIND       PRES   REMARKS
BEMIDJI        FAIR      67  60  76 SE5       29.79F
HALLOCK        FAIR      75  64  69 N3        29.84S
ROSEAU         FAIR      75  64  69 NE6       29.84R
WARROAD        FAIR      72  64  78 E3        29.85R
THIEF RVR FALL FAIR      74  59  59 VRB3      29.82S
CROOKSTON      FAIR      73  61  64 CALM      29.81R
FOSSTON        FAIR      72  63  73 SE7       29.81R
DETROIT LAKES  FAIR      70  59  68 SE13      29.81F
MOORHEAD       FAIR      73  59  60 SE9G20    29.79R
PARK RAPIDS    FAIR      65  62  90 SE10      29.83F
MAHNOMEN       FAIR      71  61  69 SE3       29.78R
$$
MNZ006-009>011-018-025>026-271800-
   North Central Minnesota

CITY           SKY/WX    TMP DP  RH WIND       PRES   REMARKS
BAUDETTE         N/A    N/A N/A N/A MISG      29.83
FLAG ISLAND    FAIR      68  63  83 CALM      29.85R
INTL FALLS     FAIR      76  62  62 CALM      29.83F
WASKISH        FAIR      73  63  68 CALM      29.82F
BIG FORK       FAIR      73  61  64 CALM      29.83F
LONGVILLE      RAIN      66  59  77 CALM      29.93F
GRAND RAPIDS   FAIR      73  58  59 W6        29.93R
ORR            FAIR      75  57  53 CALM      29.85S
COOK           FAIR      77  57  50 W9        29.88S
WALKER         FAIR      64  59  86 S9G16     29.79F
$$
MNZ012-019>021-037-271800-
   Northeast Minnesota

CITY           SKY/WX    TMP DP  RH WIND       PRES   REMARKS
DULUTH         FAIR      85  59  41 W10       29.89S
ELY            FAIR      81  55  41 W8G16     29.86F
HIBBING        FAIR      75  62  64 W3        29.89F
EVELETH        FAIR      77  63  61 W8        29.91R
DULUTH HARBOR  FAIR      63  57  82 CALM      29.87S
TWO HARBORS    FAIR      82  61  47 NW5G16    29.84F
SILVER BAY     FAIR      84  55  37 W7        29.84F
GRAND MARAIS     N/A     41  38  89 SW5       29.87S
G MARAIS ARPRT FAIR      79  55  44 W8        29.88F
$$
MNZ029>031-032-039>041-046>048-054>057-064-271800-
   West Central Minnesota

CITY           SKY/WX    TMP DP  RH WIND       PRES   REMARKS
FERGUS FALLS   FAIR      72  61  68 E15G21    29.76F
MORRIS         CLOUDY    70  63  78 E17       29.82F
ALEXANDRIA     FAIR      70  60  70 NE9       29.87F
ELBOW LAKE     FAIR      69  61  74 E14       29.82F
WADENA         FAIR      64  61  88 E8        29.84F
GLENWOOD       DRIZZLE   66  61  82 NE14      29.88F
APPLETON       CLOUDY    77  59  53 NE18      29.83F
BENSON         CLOUDY    73  61  64 E10G17    29.86F
ORTONVILLE     CLOUDY    79  57  47 E16       29.83F
MADISON        CLOUDY    82  61  47 NE14      29.85R
WILLMAR        FAIR      79  63  57 N18G26    29.91R
$$
MNZ033>034-036-042>043-049>051-058-059-271800-
   Central Minnesota

CITY           SKY/WX    TMP DP  RH WIND       PRES   REMARKS
ST CLOUD       FAIR      79  53  40 NW22G38   29.89F
SAUK CENTRE    LGT RAIN  65  59  80 NE18G26   29.89F
PAYNESVILLE    CLOUDY    76  57  51 NW17G30   29.94R
AITKIN         FAIR      72  57  60 W10G17    29.97R
PINE RIVER     LGT RAIN  63  57  82 E9        29.88F
BRAINERD       RAIN      71  57  61 N13       29.95R
STAPLES        FAIR      63  59  88 E5        29.87F
LONG PRAIRIE   LGT RAIN  63  59  88 NE15      29.87F
LITTLE FALLS   RAIN      64  59  82 N10G23    29.94R
LITCHFIELD     FAIR      79  61  53 CALM      29.87R
BUFFALO        FAIR      77  55  46 E18       29.78F
MAPLE LAKE     FAIR      78  58  50 E13G18    29.78F
HUTCHINSON     FAIR      77  62  60 CALM      29.87F
$$
MNZ037-044-045-052-053-271800-
   East Central Minnesota

CITY           SKY/WX    TMP DP  RH WIND       PRES   REMARKS
PRINCETON      FAIR      81  55  41 N12G20    29.80F
MORA           FAIR      77  57  50 CALM      29.90F
CAMBRIDGE      FAIR      84  63  48 N7        29.86F
RUSH CITY      FAIR      82  58  43 NW5       29.89F
MOOSE LAKE     FAIR      81  55  41 W6        29.89R
HINCKLEY       FAIR      81  61  50 NW8       29.91S
CLOQUET        FAIR      82  55  39 CALM      29.90R
MCGREGOR       FAIR      77  59  53 W14G21    29.95R
$$
MNZ071>073-080-081-089-090-097-098-271800-
   Southwest Minnesota

CITY           SKY/WX    TMP DP  RH WIND       PRES   REMARKS
MONTEVIDEO     CLOUDY    88  54  31 SE14      29.85R
CANBY          PTSUNNY   85  55  35 SE10G16   29.85S
MARSHALL       CLOUDY    85  58  39 E17       29.84F
REDWOOD FALLS  CLOUDY    83  60  45 E8        29.84F
OLIVIA         CLOUDY    81  61  50 E9        29.84F
PIPESTONE      MOSUNNY   91  55  29 NW6       29.86R
WINDOM         CLOUDY    91  57  31 S5        29.85S HX  90
WORTHINGTON    SUNNY     94  54  25 W5        29.86R HX  92
JACKSON        CLOUDY    91  54  27 SE5       29.87S
TRACY          PTSUNNY   89  61  38 E14       29.85S
SLAYTON        MOSUNNY   93  39  15 NW6       29.86S
$$
MNZ065>067-074>077-082>085-091>093-271800-
   South Central Minnesota

CITY           SKY/WX    TMP DP  RH WIND       PRES   REMARKS
MANKATO        FAIR      92  53  26 E6        29.87R
NEW ULM        MOSUNNY   84  54  34 NE10      29.86F
ST JAMES       PTSUNNY   95  52  23 NE6       29.86S HX  92
FAIRMONT       CLOUDY    94  54  25 VRB5      29.87R HX  92
GLENCOE        FAIR      80  59  49 E10       29.83F
FARIBAULT      FAIR      91  61  35 CALM      29.88S HX  91
OWATONNA       FAIR      91  55  29 CALM      29.88S
WASECA         FAIR      91  54  27 E7        29.89R
ALBERT LEA     FAIR      91  39  16 CALM      29.87S
$$
MNZ078>079-086>088-094>096-271800-
   Southeast Minnesota

CITY           SKY/WX    TMP DP  RH WIND       PRES   REMARKS
ROCHESTER      FAIR      91  63  39 N5        29.90R HX  92
RED WING       FAIR      90  54  29 CALM      29.86S
STANTON        FAIR      89  63  41 E3        29.86F
DODGE CENTER   FAIR      91  48  22 CALM      29.90S
WINONA         FAIR      90  64  43 CALM      29.87R HX  91
AUSTIN         FAIR      90  48  24 CALM      29.88S
PRESTON        FAIR      90  55  31 CALM      29.91R
$$
ABBREVIATIONS USED IN REMARKS
   TC - TEMPERATURES IN CELSIUS
  WCI - WIND CHILL INDEX
   HX - HEAT INDEX
  VSB - VISIBILITY
$$




USA.gov is the U.S. government's official web portal to all federal, state and local government web resources and services.